Simultaneous Nadir Overpasses (SNOs) Predictions

Prediction of SNOs between METOP-B and NOAA-19 Satellite Orbit:

Table of predicted SNOs for the next 14.0 days since TLE Epoch: 8/16/2019
Index Date (METOP-B) Time (METOP-B) Lat,Lon (METOP-B) SZA (METOP-B ) Date (NOAA-19) Time (NOAA-19) Lat,Lon (NOAA-19) SZA (NOAA-19 ) Distance(km) Time Diff (sec)
1 08/18/2019 04:56:29 79.45, 123.04 66.64 08/18/2019 04:55:21 79.44, 123.07 66.62 0.69 68
2 08/18/2019 05:47:10 -79.44, -69.64 113.35 08/18/2019 05:46:16 -79.43, -69.52 113.38 3.25 54
3 08/18/2019 06:37:51 79.43, 97.59 66.64 08/18/2019 06:37:22 79.45, 97.50 66.65 2.49 29
4 08/18/2019 07:28:32 -79.43, -95.10 113.35 08/18/2019 07:28:17 -79.43, -95.08 113.35 0.45 15
5 08/18/2019 08:19:13 79.42, 72.14 66.65 08/18/2019 08:19:22 79.42, 72.22 66.66 1.98 9
6 08/18/2019 09:09:54 -79.42,-120.55 113.35 08/18/2019 09:10:18 -79.44,-120.64 113.32 3.30 24
7 08/18/2019 10:00:35 79.40, 46.68 66.65 08/18/2019 10:01:23 79.43, 46.66 66.69 3.18 48
8 08/18/2019 10:51:16 -79.40,-146.00 113.34 08/18/2019 10:52:18 -79.42,-145.93 113.31 2.25 62
9 08/29/2019 04:28:29 79.46, 130.14 70.42 08/29/2019 04:27:17 79.46, 130.30 70.41 3.34 72
10 08/29/2019 05:19:10 -79.47, -62.44 109.56 08/29/2019 05:18:12 -79.47, -62.48 109.58 0.90 58
11 08/29/2019 06:09:51 79.44, 104.68 70.42 08/29/2019 06:09:18 79.47, 104.74 70.44 3.03 33
12 08/29/2019 07:00:32 -79.46, -87.89 109.55 08/29/2019 07:00:12 -79.45, -87.77 109.56 2.79 20
13 08/29/2019 07:51:12 79.46, 79.50 70.47 08/29/2019 07:51:18 79.45, 79.45 70.46 2.00 6
14 08/29/2019 08:41:54 -79.44,-113.35 109.55 08/29/2019 08:42:13 -79.45,-113.33 109.53 1.29 19
15 08/29/2019 09:32:34 79.45, 54.04 70.48 08/29/2019 09:33:19 79.45, 53.89 70.49 3.22 45
16 08/29/2019 10:23:16 -79.43,-138.80 109.54 08/29/2019 10:24:13 -79.43,-138.62 109.52 3.77 57




NCC Satellite Simultaneous Nadir Overpasses (SNOs) Prediction Service
